Location: Newark
(46.7000°N, 60.6000°W)
Time: 13:49:45
(UTC+00:00)

A-11 Canister half - Pass Details

Date: 04 November 2020
Orbit: 1516 x 1684 km, 47.2° (Epoch: 03 December)

Event Time Altitude Azimuth Distance (km) Brightness Sun altitude
Rises 00:16:34 0° 256° (WSW) 4,934 12.4 -36.7°
Reaches altitude 10° 00:19:44 10° 256° (WSW) 3,944 11.7 -37.2°
Enters shadow 00:29:19 81° 247° (WSW) 1,685 9.0 -38.8°
